This demonstration page uses our WeatherBlox Daily Observations layout. Learn more.

Left ArrowRight Arrow

39.51506, -84.39828

Hourly Observations for June 3, 2017

Temp ( °F °C ) Dew Point ( °F °C ) Humidity (%) Winds ( mph kmh ) Pressure ( in mb ) Visibility ( mi km ) Precip ( " mm )
12:15 am 00:15 Clear 58 14.4 49 9.2 71 71 Calm 30.09 1019 10 16 0.00 0.00
12:35 am 00:35 Clear 57 14.1 49 9.5 74 74 NE 3 6 30.09 1019 10 16 0.00 0.00
12:55 am 00:55 Clear 60 15.4 49 9.5 68 68 Calm 30.09 1019 10 16 0.00 0.00
1:15 am 01:15 Clear 60 15.3 50 10 71 71 Calm 30.09 1019 10 16 0.00 0.00
1:35 am 01:35 Clear 57 13.8 48 9.1 73 73 Calm 30.06 1018 10 16 0.00 0.00
1:55 am 01:55 Clear 57 13.8 49 9.2 74 74 Calm 30.09 1019 10 16 0.00 0.00
2:15 am 02:15 Clear 57 13.8 50 9.9 78 78 Calm 30.09 1019 10 16 0.00 0.00
2:35 am 02:35 Clear 56 13.3 49 9.4 77 77 Calm 30.06 1018 10 16 0.00 0.00
2:55 am 02:55 Clear 55 12.7 48 9 78 78 Calm 30.09 1019 10 16 0.00 0.00
3:15 am 03:15 Clear 56 13.5 49 9.6 77 77 Calm 30.09 1019 10 16 0.00 0.00
3:35 am 03:35 Clear 55 12.5 48 8.8 78 78 Calm 30.09 1019 10 16 0.00 0.00
3:55 am 03:55 Clear 55 12.5 48 9 79 79 Calm 30.09 1019 10 16 0.00 0.00
4:15 am 04:15 Clear 55 12.5 48 9 79 79 Calm 30.09 1019 10 16 0.00 0.00
4:35 am 04:35 Clear 55 12.5 48 9.1 80 80 Calm 30.09 1019 10 16 0.00 0.00
4:55 am 04:55 Clear 55 12.5 48 9 79 79 Calm 30.09 1019 10 16 0.00 0.00
5:15 am 05:15 Clear 55 12.5 48 9 79 79 Calm 30.09 1019 10 16 0.00 0.00
5:35 am 05:35 Clear 55 12.5 49 9.2 80 80 Calm 30.09 1019 10 16 0.00 0.00
5:55 am 05:55 Clear 55 12.5 49 9.2 80 80 Calm 30.09 1019 10 16 0.00 0.00
6:15 am 06:15 Sunny 55 12.5 49 9.2 80 80 Calm 30.09 1019 10 16 0.00 0.00
6:35 am 06:35 Sunny 55 12.5 49 9.3 81 81 Calm 30.12 1020 10 16 0.00 0.00
6:55 am 06:55 Sunny 55 12.5 49 9.3 81 81 Calm 30.12 1020 10 16 0.00 0.00
7:15 am 07:15 Sunny 55 12.5 49 9.2 80 80 Calm 30.12 1020 10 16 0.00 0.00
7:35 am 07:35 Sunny 57 13.8 51 10.5 81 81 Calm 30.12 1020 10 16 0.00 0.00
7:55 am 07:55 Sunny 60 15.3 52 11.3 77 77 Calm 30.12 1020 10 16 0.00 0.00
8:15 am 08:15 Sunny 62 16.4 54 12 75 75 Calm 30.09 1019 10 16 0.00 0.00
8:35 am 08:35 Sunny 64 18 54 12.1 69 69 Calm 30.09 1019 10 16 0.00 0.00
8:55 am 08:55 Sunny 69 20.8 56 13.1 62 62 Calm 30.09 1019 10 16 0.00 0.00
9:15 am 09:15 Sunny 69 20.8 53 11.5 55 55 Calm 30.09 1019 10 16 0.00 0.00
9:35 am 09:35 Sunny 73 22.5 54 12.2 52 52 SSW 3 6 30.09 1019 10 16 0.00 0.00
9:55 am 09:55 Sunny 74 23.6 55 12.6 50 50 S 3 6 30.09 1019 10 16 0.00 0.00
10:15 am 10:15 Sunny 76 24.2 54 12.1 47 47 S 5 7 30.09 1019 10 16 0.00 0.00
10:35 am 10:35 Sunny 77 25.1 53 11.7 43 43 SSW 5 7 30.06 1018 10 16 0.00 0.00
10:55 am 10:55 Sunny 80 26.5 52 11.1 38 38 SW 3 6 30.09 1019 10 16 0.00 0.00
11:15 am 11:15 Sunny 81 27.2 49 9.6 33 33 W 7 11 30.06 1018 10 16 0.00 0.00
11:35 am 11:35 Sunny 81 27.3 49 9.6 33 33 W 10 17 30.06 1018 10 16 0.00 0.00
11:55 am 11:55 Sunny 82 28 49 9.4 31 31 WSW 5 7 30.06 1018 10 16 0.00 0.00
12:15 pm 12:15 Sunny 83 28.2 47 8.4 29 29 SW 7 11 30.06 1018 10 16 0.00 0.00
12:35 pm 12:35 Sunny 83 28.6 38 3.2 20 20 SW 3 6 30.06 1018 10 16 0.00 0.00
12:55 pm 12:55 Sunny 83 28.6 37 2.7 19 19 WSW 7 11 30.06 1018 10 16 0.00 0.00
1:15 pm 13:15 Sunny 84 28.9 33 0.3 16 16 Calm 30.03 1017 10 16 0.00 0.00
1:35 pm 13:35 Partly Cloudy 84 28.9 35 1.7 17 17 WNW 7 11 30.03 1017 10 16 0.00 0.00
1:55 pm 13:55 Sunny 87 30.4 35 1.9 16 16 NNW 5 7 30.03 1017 10 16 0.00 0.00
2:15 pm 14:15 Sunny 87 30.7 39 3.9 18 18 SW 5 7 30.03 1017 10 16 0.00 0.00
2:35 pm 14:35 Sunny 87 30.7 38 3.6 18 18 SW 5 7 30.00 1016 10 16 0.00 0.00
2:55 pm 14:55 Mostly Cloudy 87 30.8 34 1.3 15 15 Calm 30.00 1016 10 16 0.00 0.00
3:15 pm 15:15 Mostly Cloudy 87 30.6 38 3.4 18 18 S 3 6 30.00 1016 10 16 0.00 0.00
3:35 pm 15:35 Partly Cloudy 86 29.8 36 2.4 17 17 Calm 30.00 1016 10 16 0.00 0.00
3:55 pm 15:55 Sunny 84 29.1 30 -1.2 14 14 Calm 30.00 1016 10 16 0.00 0.00
4:15 pm 16:15 Sunny 83 28.5 39 3.7 20 20 SSW 6 9 30.00 1016 10 16 0.00 0.00
4:35 pm 16:35 Sunny 88 31.1 37 2.6 16 16 SSW 9 15 29.97 1015 10 16 0.00 0.00
4:55 pm 16:55 Sunny 88 31.1 32 0 13 13 Calm 29.97 1015 10 16 0.00 0.00
5:15 pm 17:15 Sunny 87 30.8 30 -1 13 13 Calm 29.97 1015 10 16 0.00 0.00
5:35 pm 17:35 Sunny 87 30.7 34 1.3 15 15 Calm 29.97 1015 10 16 0.00 0.00
5:55 pm 17:55 Sunny 89 31.8 35 1.8 15 15 WSW 5 7 29.97 1015 10 16 0.00 0.00
6:15 pm 18:15 Sunny 87 30.7 35 1.5 15 15 SSW 8 13 29.97 1015 10 16 0.00 0.00
6:35 pm 18:35 Sunny 85 29.3 36 2.2 17 17 SW 6 9 29.97 1015 10 16 0.00 0.00
6:55 pm 18:55 Sunny 85 29.2 37 2.6 18 18 SSW 3 6 29.97 1015 10 16 0.00 0.00
7:15 pm 19:15 Sunny 83 28.6 37 2.5 19 19 SW 6 9 29.94 1014 10 16 0.00 0.00
7:35 pm 19:35 Sunny 83 28.2 39 4.1 21 21 SW 5 7 29.94 1014 10 16 0.00 0.00
7:55 pm 19:55 Sunny 81 27.2 44 6.8 27 27 SW 5 7 29.97 1015 10 16 0.00 0.00
8:15 pm 20:15 Sunny 79 26.1 55 12.6 43 43 SW 3 6 29.97 1015 10 16 0.00 0.00
8:35 pm 20:35 Sunny 74 23.6 56 13.5 53 53 Calm 29.97 1015 10 16 0.00 0.00
8:55 pm 20:55 Sunny 71 21.9 57 14.1 61 61 Calm 29.97 1015 10 16 0.00 0.00
9:15 pm 21:15 Clear 70 20.9 55 12.7 60 60 Calm 29.97 1015 10 16 0.00 0.00
9:35 pm 21:35 Clear 69 20.8 58 14.7 68 68 Calm 29.97 1015 10 16 0.00 0.00
9:55 pm 21:55 Clear 69 20.4 58 14.4 69 69 WSW 3 6 29.97 1015 10 16 0.00 0.00
10:15 pm 22:15 Clear 69 20.8 57 14.1 66 66 Calm 29.97 1015 10 16 0.00 0.00
10:35 pm 22:35 Clear 65 18.4 56 13.1 71 71 Calm 29.97 1015 10 16 0.00 0.00
10:55 pm 22:55 Clear 67 19.5 56 13.4 68 68 Calm 30.00 1016 10 16 0.00 0.00
11:15 pm 23:15 Clear 66 18.9 56 13.1 69 69 Calm 30.00 1016 10 16 0.00 0.00
11:35 pm 23:35 Clear 64 17.5 56 13.1 76 76 Calm 30.00 1016 10 16 0.00 0.00
11:55 pm 23:55 Clear 64 18 56 13.3 74 74 Calm 30.00 1016 10 16 0.00 0.00

Powered by AerisWeather